Location: Nelson
(41.2830°S, 173.2830°E)
Time: 21:21:19
(UTC+13:00)

Resurs 01 Rocket - Pass Details

Date: 24 January 2019
Orbit: 635 x 644 km, 98.0° (Epoch: 17 October)

Event Time Altitude Azimuth Distance (km) Brightness Sun altitude
Rises 21:36:14 0° 152° (SSE) 2,975 5.1 -7.5°
Reaches altitude 10° 21:38:58 10° 135° (SE) 2,055 4.1 -7.9°
Maximum altitude 21:42:20 21° 87° (E) 1,462 3.0 -8.4°
Enters shadow 21:45:35 10° 38° (NE) 2,007 3.6 -8.9°
